Location: Melizzano
(41.1500°N, 14.5000°E)
Time: 23:06:08
(UTC+00:00)

Cosmos 1833 Rocket - Pass Details

Date: 11 May 2021
Orbit: 831 x 841 km, 71.0° (Epoch: 24 June)

Event Time Altitude Azimuth Distance (km) Brightness Sun altitude
Rises 19:14:42 0° 345° (NNW) 3,404 6.7 -11.3°
Reaches altitude 10° 19:17:34 10° 358° (N) 2,466 5.7 -11.8°
Maximum altitude 19:22:17 27° 55° (NE) 1,581 4.0 -12.5°
Enters shadow 19:25:51 15° 103° (ESE) 2,126 4.2 -13.0°
